Location: Cortos
(40.7190°N, 4.5893°W)
Time: 09:28:11
(UTC+00:00)

EO 1 Del DPAF - Pass Details

Date: 05 July 2020
Orbit: 512 x 518 km, 98.0° (Epoch: 07 August)

Event Time Altitude Azimuth Distance (km) Brightness Sun altitude
Rises 22:40:08 0° 21° (NNE) 2,638 7.4 -22.2°
Reaches altitude 10° 22:42:22 10° 30° (NNE) 1,745 6.3 -22.4°
Enters shadow 22:44:47 30° 62° (ENE) 952 4.5 -22.6°
